DELTA 1 DEB, 18540

Orbit data source: Space-Track

DELTA 1 DEB, 18540 is space debris in LEO originally from a launch on Thu, 29 Jul 1976 UTC launched from the Air Force Western Test Range (AFWTR). Debris objects in space refer to the collection of defunct objects orbiting the Earth. Examples of debris include non-operational satellites, rocket bodies, and fragments generated from explosions, collisions, or faulty payload assembly.

Loading next visibility...
Identifier
18540, 1976-077FC
Orbit
LEO
Country
Flag of USUS
Related business
Manufacturer
Unknown
Mission
Spacecraft
Bus & Motor
Unknown
Mass
Unknown
Launch date (UTC)
1976-07-29 (50 years ago)
Launch vehicle
Unknown
Launch site
Air Force Western Test Range (AFWTR)
Object type
Payload
Rocket body
Debris
Shape & HBR
Unknown shape, 0.1 m
Radar Cross Section
Small (<0.1 m²)

Expand to show TLE details & history
Last TLE update: 7 hours ago

TLE from 7 hours ago
0 DELTA 1 DEB
1 18540U 76077FC  26119.11144750  .00000785  00000-0  47286-2 0  9996
2 18540 103.8731 246.9483 0443290 104.8656  76.0907 12.35913114609229
Epoch: 2026-04-29T02:40Z
TLE epoch observation values (Epoch: 2026-04-29T02:40:29.064Z)
Latitude
-5.90854°
Longitude
168.29269°
Altitude
1,458.04 km
Speed
7.164 km/s
True Right ascension
04h 21m 57s
True Declination
-5° 52' 36"
Sunlit
Object was in daylight at epoch
Visualization orbit readout
Latitude
Unknown
Longitude
Unknown
Altitude
Unknown
Speed
Unknown
Apparent Right ascension
Unknown
Apparent Declination
Unknown
Sunlit
N/A
Visualization observer readout
Local Sidereal Time
16:43:06
Azimuth
Unknown
Elevation
Unknown
Doppler factor
Unknown
Orbital elements
Apogee altitude
1,871.859 km
Perigee altitude
1,171.478 km
Semi-major axis
7,899.805 km
Eccentricity
0.04433
Inclination
103.8731°
RAAN
246.9483°
Arg. of periapsis
104.8656°
True anomaly
81.08168°
Mean anomaly
76.0907°
Eccentric anomaly
78.58028°
Mean motion
3.09114 °/min
Orbital period
116.46 mins
BSTAR
0.0047286
Loading maneuver chart data...
Computing Atmospheric mass density...
Loading historical data...
Loading historical data...
Loading historical data...
Loading historical data...
Loading historical data...
Loading historical data...
Loading historical data...

Documentation

Showing up to 5 results
|